GW4285 Weather Reports


Display with metric or nautical units.
time (UTC)temp
F
wind
direction
speed
MPH
gust
MPH
rain 1hr
in
rain 24hr
in
rain mn
in
humidity
%
barometer
mb
20260509205016 74 242 0.0 5.0 0.00 0.00 0.00 61 1015.0
20260509204513 73 243 2.0 4.0 0.00 0.00 0.00 63 1015.1
20260509204009 72 268 5.0 7.0 0.00 0.00 0.00 62 1015.1
20260509203505 72 211 3.0 5.0 0.00 0.00 0.00 64 1015.0
20260509203004 74 253 3.0 7.0 0.00 0.00 0.00 61 1015.2
20260509202458 73 257 3.0 5.0 0.00 0.00 0.00 65 1015.0
20260509201954 71 254 2.0 4.0 0.00 0.00 0.00 65 1015.2
20260509201454 73 259 2.0 5.0 0.00 0.00 0.00 66 1015.1
20260509200951 73 265 3.0 10.0 0.00 0.00 0.00 66 1015.1
20260509200446 75 249 4.0 7.0 0.00 0.00 0.00 62 1015.1
20260509195943 75 235 2.0 4.0 0.00 0.00 0.00 64 1015.2
20260509195438 75 190 3.0 4.0 0.00 0.00 0.00 64 1015.3
20260509194938 75 247 3.0 7.0 0.00 0.00 0.00 59 1015.2
20260509194433 75 251 3.0 4.0 0.00 0.00 0.00 58 1015.1
20260509193931 74 258 3.0 7.0 0.00 0.00 0.00 59 1015.1
20260509193430 73 200 0.0 1.0 0.00 0.00 0.00 57 1015.2
20260509192927 73 242 3.0 5.0 0.00 0.00 0.00 57 1015.2
20260509192423 74 256 1.0 7.0 0.00 0.00 0.00 57 1015.2
20260509191918 72 247 1.0 5.0 0.00 0.00 0.00 59 1015.3
20260509191409 73 237 5.0 7.0 0.00 0.00 0.00 57 1015.2
20260509190905 73 262 1.0 1.0 0.00 0.00 0.00 56 1015.3
20260509190403 72 233 2.0 5.0 0.00 0.00 0.00 59 1015.4
20260509185900 72 256 1.0 4.0 0.00 0.00 0.00 60 1015.4
20260509185356 70 248 0.0 4.0 0.00 0.00 0.00 62 1015.6
20260509184853 72 234 0.0 1.0 0.00 0.00 0.00 60 1015.6
20260509184350 71 261 6.0 7.0 0.00 0.00 0.00 60 1015.6
20260509183847 71 252 0.0 3.0 0.00 0.00 0.00 62 1015.7
20260509183342 71 257 3.0 5.0 0.00 0.00 0.00 64 1015.5
20260509182838 70 258 5.0 8.0 0.00 0.00 0.00 63 1015.6
20260509182336 70 265 1.0 1.0 0.00 0.00 0.00 64 1015.6
20260509181833 69 311 0.0 1.0 0.00 0.00 0.00 64 1015.5
20260509181330 69 228 1.0 3.0 0.00 0.00 0.00 65 1015.6
20260509180827 67 252 0.0 3.0 0.00 0.00 0.00 69 1015.5
20260509180323 67 248 0.0 1.0 0.00 0.00 0.00 67 1015.5
20260509175820 67 250 0.0 3.0 0.00 0.00 0.00 67 1015.6
20260509175316 66 242 1.0 3.0 0.00 0.00 0.00 70 1015.6
20260509174812 67 255 1.0 3.0 0.00 0.00 0.00 70 1015.7
20260509174308 66 256 1.0 3.0 0.00 0.00 0.00 72 1015.6
20260509173804 66 250 0.0 1.0 0.00 0.00 0.00 72 1015.7
20260509173300 65 274 2.0 4.0 0.00 0.00 0.00 73 1015.6
20260509172755 65 250 0.0 1.0 0.00 0.00 0.00 74 1015.6
20260509172253 63 269 3.0 4.0 0.00 0.00 0.00 77 1015.6
20260509171748 63 335 1.0 5.0 0.00 0.00 0.00 78 1015.7
20260509171244 63 288 0.0 1.0 0.00 0.00 0.00 78 1015.6
20260509170741 62 286 4.0 5.0 0.00 0.00 0.00 79 1015.6
20260509170237 62 291 0.0 3.0 0.00 0.00 0.00 79 1015.7
20260509165736 62 291 3.0 4.0 0.00 0.00 0.00 78 1015.6
20260509165231 61 291 3.0 4.0 0.00 0.00 0.00 80 1015.6
20260509164727 62 296 0.0 0.0 0.00 0.00 0.00 78 1015.7
20260509164223 61 296 0.0 1.0 0.00 0.00 0.00 80 1015.7
20260509163721 60 296 0.0 0.0 0.00 0.00 0.00 81 1015.6
20260509163217 60 296 0.0 0.0 0.00 0.00 0.00 81 1015.6
20260509162715 60 296 0.0 0.0 0.00 0.00 0.00 82 1015.7
20260509162210 59 296 0.0 0.0 0.00 0.00 0.00 82 1015.7
20260509161705 58 295 0.0 0.0 0.00 0.00 0.00 84 1015.7
20260509161201 58 296 0.0 0.0 0.00 0.00 0.00 84 1015.8
20260509160657 58 296 0.0 0.0 0.00 0.00 0.00 83 1015.9
20260509160153 59 296 0.0 0.0 0.00 0.00 0.00 81 1015.9
20260509155649 57 296 0.0 0.0 0.00 0.00 0.00 86 1015.8
20260509155146 56 296 0.0 0.0 0.00 0.00 0.00 87 1015.9
20260509154641 56 296 0.0 0.0 0.00 0.00 0.00 87 1015.9
20260509154138 56 296 0.0 0.0 0.00 0.00 0.00 86 1015.8
20260509153636 56 296 0.0 0.0 0.00 0.00 0.00 87 1016.0
20260509153132 55 296 0.0 0.0 0.00 0.00 0.00 90 1016.0
20260509152628 54 296 0.0 0.0 0.00 0.00 0.00 91 1015.9
20260509152126 54 296 0.0 0.0 0.00 0.00 0.00 89 1015.8
20260509151622 55 298 0.0 0.0 0.00 0.00 0.00 87 1015.8
20260509151120 55 299 0.0 0.0 0.00 0.00 0.00 91 1015.8
20260509150618 53 298 0.0 0.0 0.00 0.00 0.00 96 1015.6
20260509150115 51 299 0.0 0.0 0.00 0.00 0.00 98 1015.6
20260509145611 50 299 0.0 0.0 0.00 0.00 0.00 98 1015.5
20260509145106 49 299 0.0 0.0 0.00 0.00 0.00 99 1015.6
20260509144603 49 298 0.0 0.0 0.00 0.00 0.00 99 1015.5
20260509144100 49 298 0.0 0.0 0.00 0.00 0.00 99 1015.6
20260509143557 48 298 0.0 0.0 0.00 0.00 0.00 99 1015.6
20260509143055 48 298 0.0 0.0 0.00 0.00 0.00 99 1015.5
20260509142550 48 298 0.0 0.0 0.00 0.00 0.00 98 1015.6
20260509142046 49 298 0.0 0.0 0.00 0.00 0.00 98 1015.5
20260509141543 49 298 0.0 0.0 0.00 0.00 0.00 98 1015.5
20260509141039 49 298 0.0 0.0 0.00 0.00 0.00 98 1015.4
20260509140536 49 298 0.0 0.0 0.00 0.00 0.00 98 1015.4
20260509140034 49 298 0.0 0.0 0.00 0.00 0.00 98 1015.2
20260509135531 49 327 0.0 0.0 0.00 0.00 0.00 98 1015.2
20260509135029 49 327 0.0 0.0 0.00 0.00 0.00 98 1015.2
20260509134526 49 327 0.0 0.0 0.00 0.00 0.00 98 1015.0
20260509134023 49 327 0.0 0.0 0.00 0.00 0.00 98 1015.2
20260509133520 49 328 0.0 0.0 0.00 0.00 0.00 98 1015.0
20260509133018 49 328 0.0 0.0 0.00 0.00 0.00 98 1015.1
20260509132516 48 328 0.0 0.0 0.00 0.00 0.00 98 1015.0
20260509132014 48 328 0.0 0.0 0.00 0.00 0.00 98 1015.1
20260509131510 48 328 0.0 0.0 0.00 0.00 0.00 98 1015.1
20260509131006 48 328 0.0 0.0 0.00 0.00 0.00 98 1015.1
20260509130502 48 328 0.0 0.0 0.00 0.00 0.00 98 1015.1
20260509125959 48 328 0.0 0.0 0.00 0.00 0.00 98 1015.0
20260509125455 48 328 0.0 0.0 0.00 0.00 0.00 98 1015.0
20260509124951 48 328 0.0 0.0 0.00 0.00 0.00 98 1014.9
20260509124449 48 328 0.0 0.0 0.00 0.00 0.00 98 1014.9
20260509123946 48 328 0.0 0.0 0.00 0.00 0.00 98 1014.9
20260509123443 48 328 0.0 0.0 0.00 0.00 0.00 98 1015.0
20260509122939 48 328 0.0 0.0 0.00 0.00 0.00 98 1015.0
20260509122436 48 328 0.0 0.0 0.00 0.00 0.00 98 1015.0
20260509121933 48 328 0.0 0.0 0.00 0.00 0.00 98 1014.9
20260509121430 49 328 0.0 0.0 0.00 0.00 0.00 98 1015.0
20260509120928 49 329 0.0 0.0 0.00 0.00 0.00 98 1014.9
20260509120425 49 329 0.0 0.0 0.00 0.00 0.00 98 1014.9
20260509115923 49 329 0.0 0.0 0.00 0.00 0.00 98 1015.0
20260509115420 49 329 0.0 0.0 0.00 0.00 0.00 98 1015.0
20260509114918 49 329 0.0 0.0 0.00 0.00 0.00 97 1015.0
20260509114416 49 329 0.0 0.0 0.00 0.00 0.00 97 1015.1
20260509113910 49 329 0.0 0.0 0.00 0.00 0.00 97 1015.1
20260509113407 49 329 0.0 0.0 0.00 0.00 0.00 97 1015.1
20260509112903 49 329 0.0 0.0 0.00 0.00 0.00 97 1015.2
20260509112400 49 329 0.0 0.0 0.00 0.00 0.00 97 1015.1
20260509111857 49 329 0.0 0.0 0.00 0.00 0.00 97 1015.1
20260509111354 49 329 0.0 0.0 0.00 0.00 0.00 97 1015.1
20260509110852 49 329 0.0 0.0 0.00 0.00 0.00 97 1015.0
20260509110348 49 329 0.0 0.0 0.00 0.00 0.00 97 1015.0
20260509105846 49 329 0.0 0.0 0.00 0.00 0.00 96 1015.1
20260509105344 49 329 0.0 0.0 0.00 0.00 0.00 97 1015.1
20260509104840 49 329 0.0 0.0 0.00 0.00 0.00 97 1015.0
20260509104337 49 329 0.0 0.0 0.00 0.00 0.00 97 1015.0
20260509103835 49 329 0.0 0.0 0.00 0.00 0.00 97 1015.0
20260509103332 49 329 0.0 0.0 0.00 0.00 0.00 97 1015.1
20260509102831 49 329 0.0 0.0 0.00 0.00 0.00 97 1015.1
20260509102328 49 329 0.0 0.0 0.00 0.00 0.00 97 1015.1
20260509101823 49 329 0.0 0.0 0.00 0.00 0.00 97 1015.2
20260509101320 49 329 0.0 0.0 0.00 0.00 0.00 97 1015.2
20260509100818 49 329 0.0 0.0 0.00 0.00 0.00 97 1015.1
20260509100315 49 329 0.0 0.0 0.00 0.00 0.00 97 1015.1
20260509095812 49 329 0.0 0.0 0.00 0.00 0.00 97 1015.2
20260509095309 49 329 0.0 0.0 0.00 0.00 0.00 97 1015.2
20260509094806 49 329 0.0 0.0 0.00 0.00 0.00 97 1015.2
20260509094303 49 329 0.0 0.0 0.00 0.00 0.00 97 1015.2
20260509093801 49 329 0.0 0.0 0.00 0.00 0.00 97 1015.2
20260509093257 49 329 0.0 0.0 0.00 0.00 0.00 97 1015.3
20260509092755 49 329 0.0 0.0 0.00 0.00 0.00 96 1015.3
20260509092253 49 329 0.0 0.0 0.00 0.00 0.00 96 1015.5
20260509091751 49 329 0.0 0.0 0.00 0.00 0.00 97 1015.4
20260509091247 49 329 0.0 0.0 0.00 0.00 0.00 97 1015.4
20260509090744 49 329 0.0 0.0 0.00 0.00 0.00 97 1015.4
20260509090241 49 329 0.0 0.0 0.00 0.00 0.00 96 1015.4
20260509085739 50 329 0.0 0.0 0.00 0.00 0.00 96 1015.4
20260509085237 50 329 0.0 0.0 0.00 0.00 0.00 96 1015.5
20260509084733 50 301 0.0 0.0 0.00 0.00 0.00 96 1015.6
20260509084229 50 286 0.0 0.0 0.00 0.00 0.00 96 1015.6
20260509083728 50 340 0.0 0.0 0.00 0.00 0.00 96 1015.7
20260509083224 50 340 0.0 0.0 0.00 0.00 0.00 96 1015.6
20260509082720 50 340 0.0 0.0 0.00 0.00 0.00 96 1015.6
20260509082217 50 340 0.0 0.0 0.00 0.00 0.00 96 1015.5
20260509081714 50 340 0.0 0.0 0.00 0.00 0.00 96 1015.5
20260509081211 50 340 0.0 0.0 0.00 0.00 0.00 96 1015.6
20260509080710 50 340 0.0 0.0 0.00 0.00 0.00 96 1015.6
20260509080208 50 340 0.0 0.0 0.00 0.00 0.00 96 1015.7
20260509075706 50 340 0.0 0.0 0.00 0.00 0.00 96 1015.7
20260509075203 50 340 0.0 0.0 0.00 0.00 0.00 96 1015.7
20260509074659 50 340 0.0 0.0 0.00 0.00 0.00 97 1015.7
20260509074156 50 340 0.0 0.0 0.00 0.00 0.00 97 1015.7
20260509073653 50 340 0.0 0.0 0.00 0.00 0.00 97 1015.8
20260509073149 50 340 0.0 0.0 0.00 0.00 0.00 96 1015.9
20260509072646 50 340 0.0 0.0 0.00 0.00 0.00 97 1015.8
20260509072143 50 340 0.0 0.0 0.00 0.00 0.00 97 1015.8
20260509071639 50 340 0.0 0.0 0.00 0.00 0.00 97 1015.8
20260509071137 50 340 0.0 0.0 0.00 0.00 0.00 96 1015.9
20260509070633 50 341 0.0 0.0 0.00 0.00 0.00 96 1015.8
20260509070130 50 341 0.0 0.0 0.00 0.00 0.00 96 1015.9
20260509065625 50 341 0.0 0.0 0.00 0.00 0.00 96 1015.9
20260509065122 50 341 0.0 0.0 0.00 0.00 0.00 96 1015.9
20260509064619 50 341 0.0 0.0 0.00 0.00 0.00 96 1015.9
20260509064117 50 341 0.0 0.0 0.00 0.00 0.00 96 1015.9
20260509063614 50 341 0.0 0.0 0.00 0.00 0.00 96 1016.0
20260509063110 50 341 0.0 0.0 0.00 0.00 0.00 96 1016.0
20260509062607 50 341 0.0 0.0 0.00 0.00 0.00 96 1016.2
20260509062105 50 341 0.0 0.0 0.00 0.00 0.00 96 1016.0
20260509061601 51 341 0.0 0.0 0.00 0.00 0.00 96 1016.1
20260509061059 50 341 0.0 0.0 0.00 0.00 0.00 96 1016.0
20260509060556 51 341 0.0 0.0 0.00 0.00 0.00 95 1016.2
20260509060052 51 341 0.0 0.0 0.00 0.00 0.00 95 1016.3
20260509055547 51 341 0.0 0.0 0.00 0.00 0.00 95 1016.1
20260509055044 51 341 0.0 0.0 0.00 0.00 0.00 95 1016.3
20260509054540 51 341 0.0 0.0 0.00 0.00 0.00 95 1016.3
20260509054038 51 341 0.0 0.0 0.00 0.00 0.00 95 1016.3
20260509053537 51 341 0.0 0.0 0.00 0.00 0.00 95 1016.4
20260509053033 51 341 0.0 0.0 0.00 0.00 0.00 95 1016.4
20260509052531 51 341 0.0 0.0 0.00 0.00 0.00 95 1016.3
20260509052029 51 341 0.0 0.0 0.00 0.00 0.00 95 1016.3
20260509051521 51 341 0.0 0.0 0.00 0.00 0.00 94 1016.5
20260509051018 51 341 0.0 0.0 0.00 0.00 0.00 94 1016.2
20260509050514 51 341 0.0 0.0 0.00 0.00 0.00 94 1016.3
20260509050011 52 341 0.0 0.0 0.00 0.00 0.00 94 1015.9
20260509045508 52 341 0.0 0.0 0.00 0.00 0.00 93 1016.1
20260509045005 52 341 0.0 0.0 0.00 0.00 0.00 93 1016.1
20260509044503 52 341 0.0 0.0 0.00 0.00 0.00 93 1016.0
20260509044000 52 341 0.0 0.0 0.00 0.00 0.00 93 1016.0
20260509043455 52 341 0.0 0.0 0.00 0.00 0.00 93 1016.1
20260509042951 52 341 0.0 0.0 0.00 0.00 0.00 93 1016.0
20260509042448 52 341 0.0 0.0 0.00 0.00 0.00 92 1015.8
20260509041944 52 341 0.0 0.0 0.00 0.00 0.00 92 1015.9
20260509041441 52 311 0.0 0.0 0.00 0.00 0.00 92 1015.9
20260509040939 53 283 0.0 0.0 0.00 0.00 0.00 92 1016.0
20260509040437 53 283 0.0 0.0 0.00 0.00 0.00 91 1015.8
20260509035933 53 283 0.0 0.0 0.00 0.00 0.00 91 1015.8
20260509035430 53 293 0.0 0.0 0.00 0.00 0.00 91 1015.9
20260509034927 53 241 0.0 0.0 0.00 0.00 0.00 90 1015.8
20260509034425 53 289 0.0 0.0 0.00 0.00 0.00 90 1015.9
20260509033922 54 245 0.0 0.0 0.00 0.00 0.00 89 1015.8
20260509033419 54 246 0.0 0.0 0.00 0.00 0.00 89 1015.8
20260509032915 55 268 0.0 0.0 0.00 0.00 0.00 88 1015.7
20260509032413 55 242 0.0 0.0 0.00 0.00 0.00 88 1015.7
20260509031911 55 247 0.0 0.0 0.00 0.00 0.00 87 1015.7
20260509031408 56 247 0.0 0.0 0.00 0.00 0.00 86 1015.6
20260509030905 56 247 0.0 0.0 0.00 0.00 0.00 85 1015.6
20260509030403 57 247 0.0 0.0 0.00 0.00 0.00 84 1015.5
20260509025900 57 229 0.0 0.0 0.00 0.00 0.00 84 1015.5
20260509025355 58 265 0.0 0.0 0.00 0.00 0.00 83 1015.5
20260509024850 58 265 0.0 0.0 0.00 0.00 0.00 82 1015.7
20260509024347 58 264 0.0 1.0 0.00 0.00 0.00 83 1015.7
20260509023844 59 270 2.0 3.0 0.00 0.00 0.00 82 1015.7
20260509023342 59 247 0.0 1.0 0.00 0.00 0.00 82 1015.6
20260509022838 59 249 1.0 3.0 0.00 0.00 0.00 81 1015.5
20260509022335 60 220 2.0 3.0 0.00 0.00 0.00 80 1015.6
20260509021833 61 237 0.0 1.0 0.00 0.00 0.00 79 1015.5
20260509021329 60 252 0.0 1.0 0.00 0.00 0.00 80 1015.6
20260509020827 61 235 2.0 4.0 0.00 0.00 0.00 79 1015.6
20260509020325 61 258 0.0 4.0 0.00 0.00 0.00 78 1015.6
20260509015822 62 252 0.0 4.0 0.00 0.00 0.00 77 1015.6
20260509015320 63 252 3.0 3.0 0.00 0.00 0.00 76 1015.6
20260509014816 64 261 0.0 0.0 0.00 0.00 0.00 76 1015.6
20260509014314 64 294 0.0 3.0 0.00 0.00 0.00 73 1015.6
20260509013810 65 264 0.0 1.0 0.00 0.00 0.00 73 1015.6
20260509013306 65 241 0.0 3.0 0.00 0.00 0.00 72 1015.7
20260509012803 65 262 0.0 0.0 0.00 0.00 0.00 73 1015.7
20260509012259 65 232 1.0 4.0 0.00 0.00 0.00 73 1015.9
20260509011757 65 252 3.0 5.0 0.00 0.00 0.00 74 1015.9
20260509011254 65 215 3.0 4.0 0.00 0.00 0.00 73 1015.8
20260509010752 63 277 5.0 7.0 0.00 0.00 0.00 76 1015.9
20260509010248 64 236 3.0 5.0 0.00 0.00 0.00 75 1015.9
20260509005746 64 260 7.0 10.0 0.00 0.00 0.00 76 1015.9
20260509005243 66 259 0.0 1.0 0.00 0.00 0.00 73 1015.9
20260509004737 66 276 3.0 5.0 0.00 0.00 0.00 73 1015.9
20260509004235 66 244 1.0 4.0 0.00 0.00 0.00 72 1016.0
20260509003733 66 260 3.0 7.0 0.00 0.00 0.00 72 1015.9
20260509003230 67 277 2.0 5.0 0.00 0.00 0.00 69 1016.2
20260509002727 67 254 0.0 3.0 0.00 0.00 0.00 69 1016.2
20260509002225 66 242 1.0 7.0 0.00 0.00 0.00 73 1016.1
20260509001722 66 262 3.0 5.0 0.00 0.00 0.00 72 1016.3
20260509001218 67 264 1.0 5.0 0.00 0.00 0.00 70 1016.2
20260509000716 67 245 0.0 5.0 0.00 0.00 0.00 70 1016.2
20260509000213 68 255 2.0 3.0 0.00 0.00 0.00 72 1016.3
20260508235710 68 264 2.0 4.0 0.00 0.00 0.00 70 1016.5
20260508235206 68 292 3.0 4.0 0.00 0.00 0.00 69 1016.5
20260508234704 67 257 1.0 8.0 0.00 0.00 0.00 73 1016.6
20260508234200 67 275 3.0 5.0 0.00 0.00 0.00 71 1016.6
20260508233654 69 267 3.0 8.0 0.00 0.00 0.00 68 1016.6
20260508233151 69 207 1.0 3.0 0.00 0.00 0.00 69 1016.7
20260508232648 68 259 2.0 5.0 0.00 0.00 0.00 71 1016.6
20260508232145 69 237 4.0 5.0 0.00 0.00 0.00 66 1016.7
20260508231643 69 260 1.0 4.0 0.00 0.00 0.00 69 1016.7
20260508231139 69 261 3.0 4.0 0.00 0.00 0.00 70 1016.7
20260508230636 68 261 4.0 8.0 0.00 0.00 0.00 68 1016.9
20260508230132 70 177 2.0 5.0 0.00 0.00 0.00 68 1017.1
20260508225631 69 236 3.0 5.0 0.00 0.00 0.00 69 1017.0
20260508225126 68 260 2.0 7.0 0.00 0.00 0.00 71 1017.0
20260508224624 69 184 2.0 5.0 0.00 0.00 0.00 70 1017.1
20260508224122 69 262 3.0 4.0 0.00 0.00 0.00 72 1017.2
20260508223619 69 236 3.0 4.0 0.00 0.00 0.00 69 1017.2
20260508223116 70 239 3.0 4.0 0.00 0.00 0.00 67 1017.3
20260508222613 68 263 3.0 5.0 0.00 0.00 0.00 68 1017.3
20260508222110 69 254 1.0 5.0 0.00 0.00 0.00 70 1017.4
20260508221606 69 234 1.0 3.0 0.00 0.00 0.00 71 1017.4
20260508221102 69 296 0.0 5.0 0.00 0.00 0.00 70 1017.5
20260508220559 68 248 1.0 5.0 0.00 0.00 0.00 71 1017.7
20260508220055 69 279 3.0 7.0 0.00 0.00 0.00 71 1017.6
20260508215552 69 227 1.0 7.0 0.00 0.00 0.00 69 1017.6
20260508215049 68 242 1.0 5.0 0.00 0.00 0.00 70 1017.6
20260508214547 67 241 3.0 10.0 0.00 0.00 0.00 75 1017.6
20260508214043 68 236 4.0 8.0 0.00 0.00 0.00 74 1017.7
20260508213540 70 249 2.0 7.0 0.00 0.00 0.00 68 1017.6
20260508213036 70 285 3.0 8.0 0.00 0.00 0.00 68 1017.7
20260508212532 70 249 1.0 4.0 0.00 0.00 0.00 69 1017.7
20260508212029 71 268 5.0 8.0 0.00 0.00 0.00 69 1017.7
20260508211525 69 247 3.0 4.0 0.00 0.00 0.00 70 1017.8
20260508211021 69 232 1.0 10.0 0.00 0.00 0.00 72 1017.8
20260508210518 69 278 4.0 7.0 0.00 0.00 0.00 71 1017.9
20260508210016 69 250 5.0 5.0 0.00 0.00 0.00 71 1017.9
20260508205513 70 254 5.0 5.0 0.00 0.00 0.00 68 1018.0